[[{"header":{"parameterUnit":"m.s-1","parameterCategory":1,"la1":30.2991,"la2":30.254,"lo1":-89.0895,"lo2":-89.0444,"dy":0.0017,"dx":0.0017,"nx":28,"ny":28,"refTime":"2025-07-23T09:00:00:Z","depth":0,"parameterNumber":2,"parameterNumberName":"U-component_of_WINDS"},"data":[0,0,0,0,0,0,0,0,0,0,0,0,0,0,0,0,0,0,0,0,0,0,0,0,0,0,0,0,0,0,0,0,0,0,0,0,0,0,0,0,0,0,0,0,0,0,0,0,0,0,0,0,0,0,0,0,0,0,-2.4008,-2.4007,0,-2.3945,-2.3944,-2.3944,-2.3837,-2.3835,-2.3833,-2.3831,-2.377,-2.377,-2.377,0,0,0,0,0,0,0,0,0,0,0,0,0,-2.4036,-2.4036,-2.4008,-2.4007,-2.4006,-2.3945,-2.3944,-2.3944,-2.3837,-2.3835,-2.3832,-2.383,-2.377,-2.377,-2.377,0,0,0,0,0,0,0,0,0,0,0,0,0,-2.4004,-2.4036,-2.4008,-2.3946,-2.394,-2.3946,-2.3944,-2.3943,-2.3838,-2.3835,-2.3832,-2.3829,-2.377,-2.377,-2.377,-2.3833,0,0,-2.3771,-2.3772,0,0,0,0,0,0,0,0,-2.4006,-2.4003,-2.3956,-2.395,-2.3943,-2.3896,-2.3932,-2.3906,-2.3839,-2.3877,-2.3831,-2.3828,-2.3814,-2.3811,-2.3806,-2.383,-2.3827,-2.3771,-2.3772,-2.3772,-2.3772,0,0,0,0,0,0,0,-2.4008,-2.4005,-2.3983,-2.3955,-2.3948,-2.3921,-2.3913,-2.3926,-2.3863,-2.3873,-2.3865,-2.3859,-2.381,-2.3806,-2.3804,-2.3826,-2.3771,-2.3772,-2.3772,-2.3772,-2.3895,-2.3898,0,0,0,0,0,0,-2.4019,-2.4008,-2.3985,-2.3981,-2.3968,-2.3923,-2.3914,-2.3914,-2.3863,-2.3852,-2.3862,-2.3854,-2.3807,-2.3803,-2.3801,-2.3869,-2.3772,-2.3772,-2.3772,-2.3892,-2.3896,-2.3899,0,0,0,0,0,0,-2.402,-2.4018,-2.3988,-2.3992,-2.3986,-2.3926,-2.3927,-2.3914,-2.391,-2.3854,-2.3842,-2.3869,-2.3804,-2.38,-2.3825,-2.3865,-2.3772,-2.3773,-2.3889,-2.3894,-2.3898,-2.4006,0,0,0,0,0,0,-2.4022,-2.4019,-2.4042,-2.3993,-2.3986,-2.4013,-2.3929,-2.3915,-2.391,-2.39,-2.3857,-2.3848,-2.3801,-2.3825,-2.3825,-2.3864,-2.3773,-2.3885,-2.3891,-2.3896,-2.3999,-2.4014,-2.4027,0,0,0,0,0,-2.4023,-2.4077,-2.4044,-2.4042,-2.4014,-2.4015,-2.4011,-2.3956,-2.3914,-2.3936,-2.39,-2.3849,-2.3861,-2.3828,-2.3828,-2.3867,-2.3882,-2.3889,-2.3896,-2.3993,-2.4011,-2.4027,0,0,0,0,0,0,-2.4134,-2.4069,-2.4033,-2.4072,-2.405,-2.3997,-2.4024,-2.3978,-2.3968,-2.3959,-2.3892,-2.3884,-2.3916,-2.3894,-2.3859,-2.3924,-2.3863,-2.387,-2.3937,-2.3954,-2.3968,-2.3973,-2.3773,0,0,0,0,0,-2.4163,-2.4169,-2.4112,-2.4152,-2.4143,-2.4086,-2.4084,-2.4043,-2.4018,-2.4009,-2.3974,-2.3952,-2.395,-2.3951,-2.3947,-2.3995,-2.3983,-2.4022,-2.4036,-2.4048,-2.4055,-2.4077,-2.4093,-2.3922,-2.3922,-2.3922,0,0,-2.4223,-2.4188,-2.4196,-2.4174,-2.4152,-2.4159,-2.4079,-2.4091,-2.4095,-2.4011,-2.4031,-2.4005,-2.3976,-2.4012,-2.4026,-2.3994,-2.4099,-2.4057,-2.4067,-2.4067,-2.4086,-2.4102,-2.4116,-2.3927,-2.3926,-2.3925,0,0,-2.4336,-2.4311,-2.434,-2.4319,-2.4286,-2.4247,-2.4255,-2.4208,-2.4187,-2.4206,-2.4142,-2.4147,-2.4146,-2.4127,-2.4117,-2.422,-2.4172,-2.4221,-2.4295,-2.4317,-2.4331,-2.4342,-2.4378,-2.4392,-2.4228,-2.4228,-2.4229,0,-2.4415,-2.4423,-2.4362,-2.4377,-2.4368,-2.429,-2.4319,-2.4302,-2.427,-2.4266,-2.423,-2.4226,-2.4201,-2.423,-2.4255,-2.425,-2.4256,-2.4226,-2.4334,-2.4345,-2.4354,-2.4388,-2.4401,-2.4234,-2.4234,-2.4233,-2.4233,0,-2.4522,-2.4528,-2.4556,-2.4525,-2.452,-2.4542,-2.4484,-2.4485,-2.4445,-2.441,-2.4429,-2.4395,-2.4382,-2.4386,-2.4347,-2.441,-2.4391,-2.4346,-2.4284,-2.4378,-2.4408,-2.442,-2.4243,-2.4241,-2.4239,-2.4238,0,0,-2.4705,-2.4637,-2.4649,-2.4632,-2.4589,-2.4593,-2.4611,-2.4596,-2.4599,-2.4579,-2.4592,-2.4591,-2.4548,-2.4537,-2.4495,-2.4515,-2.4597,-2.4467,-2.4465,-2.4492,-2.4662,-2.4696,-2.4712,-2.4564,-2.4567,-2.4568,-2.4664,0,-2.4809,-2.4835,-2.4779,-2.4819,-2.4824,-2.4748,-2.4763,-2.4738,-2.4706,-2.4705,-2.4668,-2.4669,-2.4612,-2.4605,-2.4621,-2.4584,-2.463,-2.4576,-2.4576,-2.4577,-2.4585,-2.4728,-2.4765,-2.4857,-2.4676,-2.4678,-2.4679,0,-2.4934,-2.4918,-2.4958,-2.491,-2.4909,-2.4924,-2.4905,-2.4905,-2.4875,-2.4849,-2.4836,-2.4786,-2.4799,-2.4739,-2.4757,-2.4721,-2.4718,-2.4699,-2.4701,-2.4699,-2.4634,-2.4729,-2.4885,-2.4899,-2.4697,-2.4696,-2.4694,0,-2.5062,-2.5051,-2.5073,-2.5061,-2.5006,-2.5018,-2.4996,-2.4962,-2.4956,-2.4939,-2.4934,-2.492,-2.4912,-2.4902,-2.4849,-2.4811,-2.4873,-2.4809,-2.4852,-2.4854,-2.4869,-2.4869,-2.5026,-2.4868,-2.4868,-2.4867,-2.4867,0,-2.5184,-2.5212,-2.5129,-2.5143,-2.5171,-2.5106,-2.5135,-2.5105,-2.5075,-2.5081,-2.5015,-2.5023,-2.4952,-2.4952,-2.491,-2.4931,-2.4928,-2.4908,-2.4896,-2.4913,-2.4916,-2.491,-2.4903,-2.4871,-2.487,-2.4869,-2.4869,0,-2.5333,-2.5279,-2.5298,-2.5242,-2.5229,-2.5252,-2.5205,-2.5215,-2.5176,-2.5185,-2.5183,-2.5124,-2.5119,-2.5065,-2.505,-2.5022,-2.5058,-2.5035,-2.5069,-2.5061,-2.5107,-2.5103,-2.5266,-2.5283,-2.5114,-2.5116,-2.5118,0,-2.5414,-2.5433,-2.5379,-2.5378,-2.5358,-2.5357,-2.535,-2.5286,-2.5281,-2.5246,-2.526,-2.525,-2.5238,-2.5235,-2.519,-2.5178,-2.5153,-2.5211,-2.5151,-2.5167,-2.5153,-2.5153,-2.5154,-2.5224,-2.5226,-2.5228,-2.523,0,-2.5564,-2.5536,-2.5527,-2.5509,-2.5502,-2.5485,-2.5464,-2.5466,-2.5396,-2.5394,-2.5387,-2.5378,-2.5361,-2.5351,-2.533,-2.5307,-2.5257,-2.5248,-2.5258,-2.5276,-2.5294,-2.5284,-2.5103,-2.5245,-2.5244,-2.5243,-2.5242,-2.5241,-2.5681,-2.5693,-2.5656,-2.5649,-2.5625,-2.5607,-2.5613,-2.5574,-2.5567,-2.5547,-2.551,-2.5509,-2.5476,-2.5442,-2.5422,-2.5421,-2.5391,-2.5405,-2.5408,-2.5412,-2.5421,-2.5294,-2.5417,-2.5416,-2.5416,-2.5415,-2.5415,0,-2.5827,-2.5798,-2.5792,-2.5763,-2.5757,-2.5708,-2.5681,-2.5679,-2.5679,-2.5652,-2.5641,-2.5633,-2.5622,-2.5576,-2.5561,-2.5568,-2.5545,-2.5567,-2.5565,-2.5561,-2.5449,-2.5442,-2.5586,-2.5586,-2.5586,-2.5586,-2.5586,-2.5585,-2.5902,-2.5919,-2.5886,-2.5892,-2.5863,-2.586,-2.5849,-2.5831,-2.5808,-2.5802,-2.5793,-2.5762,-2.5726,-2.5707,-2.5696,-2.5682,-2.568,-2.5709,-2.5688,-2.5585,-2.5569,-2.5553,-2.5546,-2.5709,-2.5709,-2.5799,-2.58,-2.5801]},{"header":{"parameterUnit":"m.s-1","parameterCategory":1,"la1":30.2991,"la2":30.254,"lo1":-89.0895,"lo2":-89.0444,"dy":0.0017,"dx":0.0017,"nx":28,"ny":28,"refTime":"2025-07-23T09:00:00:Z","depth":0,"parameterNumber":3,"parameterNumberName":"V-component_of_WINDS"},"data":[0,0,0,0,0,0,0,0,0,0,0,0,0,0,0,0,0,0,0,0,0,0,0,0,0,0,0,0,0,0,0,0,0,0,0,0,0,0,0,0,0,0,0,0,0,0,0,0,0,0,0,0,0,0,0,0,0,0,-0.9914,-0.9916,0,-1.0092,-1.0094,-1.0096,-1.0208,-1.0208,-1.0209,-1.0209,-1.0384,-1.0388,-1.0392,0,0,0,0,0,0,0,0,0,0,0,0,0,-0.966,-0.9664,-0.9913,-0.9916,-0.9918,-1.0092,-1.0095,-1.0097,-1.0207,-1.0208,-1.0209,-1.021,-1.0383,-1.0387,-1.0392,0,0,0,0,0,0,0,0,0,0,0,0,0,-0.9797,-0.9665,-0.9913,-0.9994,-1.0003,-1.0092,-1.0095,-1.0098,-1.0207,-1.0208,-1.0209,-1.021,-1.0381,-1.0387,-1.0393,-1.0412,0,0,-1.0412,-1.0414,0,0,0,0,0,0,0,0,-0.9789,-0.9806,-0.998,-0.9989,-0.9999,-1.0129,-1.0069,-1.0203,-1.0207,-1.013,-1.0209,-1.0211,-1.0298,-1.0311,-1.0342,-1.042,-1.0428,-1.0412,-1.0416,-1.0419,-1.042,0,0,0,0,0,0,0,-0.9779,-0.9799,-0.9984,-0.9982,-0.9994,-1.0019,-1.004,-1.0095,-1.0206,-1.0136,-1.0145,-1.0165,-1.0303,-1.0336,-1.0347,-1.043,-1.0412,-1.0417,-1.0421,-1.0424,-1.0531,-1.0531,0,0,0,0,0,0,-0.9758,-0.979,-0.9978,-0.9989,-0.9895,-1.0023,-1.0046,-1.0086,-1.0206,-1.0225,-1.0164,-1.017,-1.0325,-1.034,-1.0353,-1.0383,-1.0418,-1.0424,-1.0428,-1.0532,-1.0531,-1.053,0,0,0,0,0,0,-0.9752,-0.9774,-0.9971,-0.9892,-0.992,-1.0026,-1.007,-1.0089,-1.0122,-1.0227,-1.0246,-1.0178,-1.0326,-1.0345,-1.0397,-1.039,-1.0427,-1.0432,-1.0533,-1.0532,-1.0531,-1.0442,0,0,0,0,0,0,-0.9745,-0.9771,-0.9781,-0.9892,-0.9923,-1.0014,-1.007,-1.0092,-1.0133,-1.0142,-1.0245,-1.0262,-1.0328,-1.0387,-1.0403,-1.0399,-1.0437,-1.0534,-1.0533,-1.0531,-1.0446,-1.0438,-1.0431,0,0,0,0,0,-0.9735,-0.9747,-0.9781,-0.9803,-0.9939,-1.0013,-1.0031,-1.0109,-1.0132,-1.0142,-1.0209,-1.0259,-1.0389,-1.0392,-1.041,-1.0408,-1.0535,-1.0533,-1.0531,-1.0449,-1.0439,-1.0431,0,0,0,0,0,0,-0.963,-0.9763,-0.9802,-0.9851,-0.9921,-1.0032,-1.0047,-1.0096,-1.0158,-1.0163,-1.0255,-1.0277,-1.032,-1.037,-1.037,-1.0432,-1.0467,-1.0469,-1.0398,-1.039,-1.0383,-1.0369,-1.0442,0,0,0,0,0,-0.9613,-0.9666,-0.9778,-0.981,-0.9843,-0.9939,-0.9974,-1.0029,-1.0103,-1.0132,-1.0203,-1.027,-1.0326,-1.0361,-1.0418,-1.0454,-1.0476,-1.0461,-1.0454,-1.0447,-1.0447,-1.0468,-1.0462,-1.0524,-1.0524,-1.0525,0,0,-0.9578,-0.9657,-0.9684,-0.9791,-0.9851,-0.99,-0.9962,-1.0012,-1.0049,-1.0138,-1.0193,-1.0247,-1.0328,-1.0371,-1.0394,-1.0414,-1.0435,-1.0445,-1.0439,-1.0443,-1.0466,-1.046,-1.0454,-1.0523,-1.0523,-1.0524,0,0,-0.9538,-0.9604,-0.9638,-0.9698,-0.9789,-0.9853,-0.986,-0.9965,-1.0005,-1.0062,-1.0129,-1.0173,-1.0268,-1.0323,-1.0363,-1.0345,-1.0392,-1.0361,-1.0321,-1.034,-1.0335,-1.0331,-1.0323,-1.0319,-1.0361,-1.036,-1.036,0,-0.9482,-0.9562,-0.9649,-0.9695,-0.9739,-0.9826,-0.9859,-0.9911,-1.0015,-1.0042,-1.0064,-1.0185,-1.0246,-1.0303,-1.0299,-1.0329,-1.0339,-1.0349,-1.033,-1.0326,-1.0324,-1.0317,-1.0314,-1.0356,-1.0356,-1.0357,-1.0357,0,-0.9487,-0.9541,-0.9557,-0.9658,-0.9705,-0.9744,-0.9834,-0.987,-0.992,-0.998,-1.0035,-1.0112,-1.0186,-1.0204,-1.0252,-1.0267,-1.0277,-1.0313,-1.0349,-1.0312,-1.0307,-1.0305,-1.0349,-1.0351,-1.0352,-1.0353,0,0,-0.9385,-0.9535,-0.9539,-0.9586,-0.9693,-0.9735,-0.9777,-0.9853,-0.9881,-0.9949,-0.9985,-1.0064,-1.0098,-1.0144,-1.0199,-1.0216,-1.0195,-1.0251,-1.0254,-1.0236,-1.0214,-1.0185,-1.0181,-1.0228,-1.0228,-1.0228,-1.0207,0,-0.9361,-0.9445,-0.9524,-0.9578,-0.9628,-0.971,-0.9747,-0.9815,-0.9872,-0.9921,-0.9983,-1.0037,-1.0079,-1.0107,-1.0128,-1.0193,-1.0192,-1.0196,-1.026,-1.0261,-1.0235,-1.0179,-1.0149,-1.0126,-1.0206,-1.0206,-1.0205,0,-0.9343,-0.9411,-0.947,-0.9572,-0.9596,-0.9628,-0.9703,-0.975,-0.9827,-0.9868,-0.9919,-0.9978,-1.0024,-1.0056,-1.0119,-1.0121,-1.0151,-1.0187,-1.0188,-1.0196,-1.023,-1.0183,-1.012,-1.0116,-1.0203,-1.0204,-1.0204,0,-0.9261,-0.9367,-0.9416,-0.9454,-0.9574,-0.9594,-0.9645,-0.9725,-0.9764,-0.9829,-0.9855,-0.9923,-0.996,-1.001,-1.0084,-1.0102,-1.0139,-1.0178,-1.0171,-1.0169,-1.0174,-1.0172,-1.0113,-1.0196,-1.0196,-1.0196,-1.0196,0,-0.9224,-0.9257,-0.9381,-0.9411,-0.9449,-0.9539,-0.9574,-0.9631,-0.9701,-0.9742,-0.9817,-0.9852,-0.995,-0.9997,-1.0055,-1.0097,-1.0113,-1.0145,-1.016,-1.0138,-1.0134,-1.0158,-1.0161,-1.0195,-1.0195,-1.0195,-1.0196,0,-0.9139,-0.9224,-0.9283,-0.9393,-0.9421,-0.9444,-0.9537,-0.9568,-0.963,-0.968,-0.9697,-0.9793,-0.9852,-0.9933,-1.0015,-1.0055,-1.0088,-1.0113,-1.0063,-1.0071,-1.006,-1.0059,-1.0013,-1.001,-1.0095,-1.0094,-1.0093,0,-0.9109,-0.9136,-0.925,-0.9284,-0.9333,-0.9387,-0.9429,-0.9518,-0.9558,-0.9649,-0.9668,-0.9733,-0.979,-0.988,-0.9955,-1.0018,-1.0044,-1.0023,-1.0054,-1.003,-1.0042,-1.0038,-1.0041,-1.0015,-1.0014,-1.0013,-1.0012,0,-0.9046,-0.9087,-0.9147,-0.922,-0.9269,-0.933,-0.9395,-0.9418,-0.952,-0.956,-0.9623,-0.9667,-0.9753,-0.9816,-0.989,-0.9939,-0.9991,-1.0002,-1.0004,-0.998,-0.9949,-0.9964,-1.0041,-1.0002,-1.0003,-1.0004,-1.0004,-1.0005,-0.8987,-0.9015,-0.91,-0.9163,-0.9222,-0.928,-0.9315,-0.9382,-0.9437,-0.9516,-0.9565,-0.9624,-0.97,-0.9805,-0.9852,-0.9898,-0.9919,-0.9922,-0.9922,-0.9921,-0.9912,-0.9944,-0.9912,-0.9912,-0.9913,-0.9913,-0.9913,0,-0.8927,-0.8986,-0.9043,-0.9133,-0.9182,-0.9231,-0.9305,-0.9341,-0.9394,-0.9463,-0.9518,-0.9589,-0.965,-0.9731,-0.9798,-0.9819,-0.9844,-0.9833,-0.9831,-0.9841,-0.9891,-0.9882,-0.9811,-0.9811,-0.9811,-0.9811,-0.9811,-0.9811,-0.8901,-0.8951,-0.9002,-0.9081,-0.9139,-0.9201,-0.9239,-0.9292,-0.9348,-0.9425,-0.9477,-0.9531,-0.9603,-0.9676,-0.9733,-0.9755,-0.9775,-0.9756,-0.9785,-0.9829,-0.9838,-0.9847,-0.9839,-0.976,-0.976,-0.9732,-0.9731,-0.9731]}]]